Regional Weather Roundup
Issued by NWS

Home | Current Version | Previous Version | Text Only | Print | Product List | Glossary On
Versions: 1 2 3 4 5 6 7 8 9 10 11 12 13 14 15 16 17 18 19 20 21 22 23 24 25 26 27 28 29 30 31 32 33 34 35 36 37 38 39 40 41 42 43 44 45 46 47 48 49 50
000
ASUS43 KTOP 270259
RWRKS

WEATHER ROUNDUP FOR KANSAS
NATIONAL WEATHER SERVICE GOODLAND KS
900 PM CST MON JAN 26 2015

NOTE:  "FAIR" INDICATES FEW OR NO CLOUDS BELOW 12,000 FEET WITH NO
SIGNIFICANT WEATHER AND/OR OBSTRUCTIONS TO VISIBILITY.

KSZ001>006-013>018-027>032-041>047-270400-
NORTHWEST KANSAS

CITY           SKY/WX    TMP DP  RH WIND       PRES   REMARKS
GOODLAND       CLEAR     44  32  62 SW10      30.16S
HAYS           CLEAR     46  27  46 NW9       30.09R
HILL CITY      CLEAR     46  29  51 W7        30.09S
RUSSELL        CLEAR     43  30  60 SW6       30.06R
$$

KSZ061>065-074>080-084>089-270400-
SOUTHWEST KANSAS

CITY           SKY/WX    TMP DP  RH WIND       PRES   REMARKS
DODGE CITY     CLEAR     47  29  49 NW10      30.13S
ELKHART          N/A     50  29  44 W7          N/A
GARDEN CITY    CLEAR     45  29  53 W10       30.14S
GREAT BEND     CLEAR     43  28  56 W6        30.09S
LIBERAL        CLEAR     43  27  52 W10       30.19S
$$

KSZ066>073-081>083-090>101-270400-
SOUTHEAST KANSAS

CITY           SKY/WX    TMP DP  RH WIND       PRES   REMARKS
CHANUTE        CLEAR     46  35  65 NW5       30.03R
COFFEYVILLE    CLEAR     48  35  60 W3        30.02S
HUTCHINSON     CLEAR     43  31  62 NW3       30.06R
MEDICINE LODGE   N/A     51  32  48 CALM      30.08R
NEWTON         CLEAR     50  30  46 CALM      30.08R
PARSONS        CLEAR     43  35  73 CALM      30.03R
WICHITA INTL   CLEAR     46  33  60 NW6       30.05R
WICHITA JABRA  CLEAR     52  34  50 NW7       30.05R
WINFIELD       CLEAR     44  31  60 CALM      30.05S
$$

KSZ007>012-019>026-033>040-048>060-102>105-270400-
NORTHEAST KANSAS

CITY           SKY/WX    TMP DP  RH WIND       PRES   REMARKS
CONCORDIA      CLEAR     47  33  58 W6        30.04S
EMPORIA        CLEAR     47  33  58 CALM      30.02S
LAWRENCE       CLEAR     36  28  73 NW7       30.02R
MANHATTAN      CLEAR     36  26  67 CALM      30.04R
OLATHE IND     CLEAR     46  31  55 CALM      30.02R
OLATHE EXE     CLEAR     49  32  52 NW5       30.00R
SALINA         CLEAR     45  32  60 CALM      30.06R
TOPEKA BILLARD CLEAR     47  29  49 CALM      30.03R
TOPEKA FORBES  CLEAR     44  28  53 NW7       30.02R
$$


USA.gov is the U.S. government's official web portal to all federal, state and local government web resources and services.